Date String (YYYY-MM-DD hh:mm:ss) UTC,Instrument flags,absolute air pressure of the measurement (hPa),sample flow rate (lpm),inlet stack bypass flow (lpm),air temperature of the measurement (°C),ambient temperature measured by the external sensor (°C),aerosol sample conditioner tube jacket temperature (°C),OPC LED temperature (°C),internal box temperature (°C),relative humidity of the measurement (%),span deviation,mass concentration of particles derived from Lorenz-Mie calculation of OPC scattering (μg/m³),mass concentration of particles derived from Lorenz-Mie calculation of OPC scattering (μg/m³),mass concentration of particles derived from Lorenz-Mie calculation of OPC scattering (μg/m³)
DateTimeUTC,F1_M11,P_M11,Q1_M11,Q2_M11,T1_M11,T2_M11,T3_M11,T4_M11,T5_M11,U1_M11,ZSPAN_M11,X2_M11,X0_M11,X1_M11
2023-07-18 03:00:00,SystemResetWarning,0830.6,5.01,000.00,028.5,024.9,000.0,036.8,029.8,17.4,0000.0,0003.69,0009.98,0002.94
2023-07-18 03:01:00,SystemResetWarning,0830.7,4.98,000.00,028.5,025.3,000.0,036.8,029.9,17.4,0000.0,0003.69,0010.30,0002.94
2023-07-18 03:02:00,SystemResetWarning,0830.7,5.00,000.00,028.5,025.8,000.0,036.9,030.0,17.6,0000.0,0003.71,0010.20,0002.95
2023-07-18 03:03:00,SystemResetWarning,0830.7,5.01,000.00,028.5,026.3,000.0,036.9,030.1,17.4,0000.0,0003.70,0010.17,0002.96
2023-07-18 03:04:00,SystemResetWarning,0830.7,5.00,000.00,028.6,026.7,000.0,036.9,030.2,17.3,0000.0,0003.72,0010.12,0002.98
2023-07-18 03:05:00,SystemResetWarning,0830.7,4.99,000.00,028.6,027.0,000.0,036.9,030.3,17.3,0000.0,0003.75,0011.20,0002.97
2023-07-18 03:06:00,SystemResetWarning,0830.8,4.99,000.00,028.7,027.3,000.0,037.0,030.4,17.2,0000.0,0003.76,0011.83,0002.97
2023-07-18 03:07:00,SystemResetWarning,0830.8,5.00,000.00,028.7,027.5,000.0,037.0,030.5,17.1,0000.0,0003.77,0012.86,0002.97
2023-07-18 03:08:00,SystemResetWarning,0830.8,4.99,000.00,028.8,027.6,000.0,037.0,030.5,17.2,0000.0,0003.74,0012.32,0002.97
2023-07-18 03:09:00,SystemResetWarning,0830.7,5.00,000.00,028.8,026.1,000.0,036.9,030.4,17.0,0000.0,0003.73,0012.45,0002.98
2023-07-18 03:10:00,SystemResetWarning,0830.7,5.00,000.00,028.7,025.5,000.0,036.8,030.2,17.0,0000.0,0003.67,0012.13,0002.96
2023-07-18 03:11:00,SystemResetWarning,0830.6,5.02,000.00,028.7,025.7,000.0,036.9,030.1,17.1,0000.0,0003.71,0012.07,0002.94
2023-07-18 03:12:00,SystemResetWarning,0830.6,4.99,000.00,028.7,026.0,000.0,036.9,030.1,17.1,0000.0,0003.68,0011.39,0002.94
2023-07-18 03:13:00,SystemResetWarning,0830.6,4.99,000.00,028.7,026.4,000.0,037.0,030.2,17.2,0000.0,0003.66,0011.41,0002.95
2023-07-18 03:14:00,SystemResetWarning,0830.7,5.00,000.00,028.7,026.8,000.0,037.0,030.3,17.0,0000.0,0003.64,0011.67,0002.96
2023-07-18 03:15:00,SystemResetWarning,0830.8,5.00,000.00,028.7,027.1,000.0,037.0,030.4,17.2,0000.0,0003.64,0011.53,0002.97
2023-07-18 03:16:00,SystemResetWarning,0830.8,5.00,000.00,028.8,027.4,000.0,037.1,030.5,17.0,0000.0,0003.58,0010.73,0002.97
2023-07-18 03:17:00,SystemResetWarning,0830.9,4.99,000.00,028.8,027.5,000.0,037.1,030.6,16.9,0000.0,0003.57,0010.06,0002.98
2023-07-18 03:18:00,SystemResetWarning,0830.8,4.98,000.00,028.8,026.1,000.0,037.0,030.4,16.7,0000.0,0003.57,0009.14,0003.00
2023-07-18 03:19:00,SystemResetWarning,0830.8,5.01,000.00,028.8,024.6,000.0,036.9,030.2,16.5,0000.0,0003.56,0008.97,0003.02
2023-07-18 03:20:00,SystemResetWarning,0830.8,5.01,000.00,028.7,024.6,000.0,036.8,030.1,16.6,0000.0,0003.55,0008.99,0003.01
2023-07-18 03:21:00,SystemResetWarning,0830.8,5.00,000.00,028.6,025.0,000.0,036.9,029.9,17.2,0000.0,0003.57,0009.78,0003.02
2023-07-18 03:22:00,SystemResetWarning,0830.9,5.00,000.00,028.6,025.5,000.0,036.9,030.0,17.5,0000.0,0003.53,0009.95,0003.03
2023-07-18 03:23:00,SystemResetWarning,0830.9,5.00,000.00,028.6,026.0,000.0,036.9,030.1,17.5,0000.0,0003.55,0011.65,0003.04
2023-07-18 03:24:00,SystemResetWarning,0830.9,5.01,000.00,028.6,026.4,000.0,037.0,030.2,17.0,0000.0,0003.58,0012.13,0003.03
2023-07-18 03:25:00,SystemResetWarning,0830.9,5.00,000.00,028.6,026.8,000.0,037.0,030.3,16.6,0000.0,0003.58,0012.24,0003.03
2023-07-18 03:26:00,SystemResetWarning,0830.9,4.99,000.00,028.7,027.1,000.0,037.0,030.4,16.6,0000.0,0003.59,0012.84,0003.05
2023-07-18 03:27:00,SystemResetWarning,0830.9,5.00,000.00,028.7,027.4,000.0,037.0,030.5,16.7,0000.0,0003.61,0012.69,0003.06
2023-07-18 03:28:00,SystemResetWarning,0830.9,5.01,000.00,028.8,027.6,000.0,037.1,030.5,16.6,0000.0,0003.60,0012.60,0003.08
2023-07-18 03:29:00,SystemResetWarning,0830.9,4.99,000.00,028.8,027.4,000.0,037.1,030.6,16.1,0000.0,0003.59,0012.25,0003.09
2023-07-18 03:30:00,SystemResetWarning,0830.8,4.99,000.00,028.8,025.8,000.0,037.0,030.4,16.3,0000.0,0003.61,0012.32,0003.10
2023-07-18 03:31:00,SystemResetWarning,0830.8,5.02,000.00,028.8,025.5,000.0,036.9,030.3,16.0,0000.0,0003.61,0012.75,0003.10
2023-07-18 03:32:00,SystemResetWarning,0830.8,5.00,000.00,028.7,025.8,000.0,036.9,030.2,16.3,0000.0,0003.61,0011.94,0003.10
2023-07-18 03:33:00,SystemResetWarning,0830.9,5.00,000.00,028.7,026.1,000.0,037.0,030.2,16.5,0000.0,0003.65,0011.67,0003.12
2023-07-18 03:34:00,SystemResetWarning,0830.9,5.00,000.00,028.7,026.5,000.0,037.0,030.3,16.5,0000.0,0003.67,0010.34,0003.13
2023-07-18 03:35:00,SystemResetWarning,0830.9,5.00,000.00,028.7,026.9,000.0,037.1,030.4,16.5,0000.0,0003.64,0010.45,0003.13
2023-07-18 03:36:00,SystemResetWarning,0830.9,4.99,000.00,028.8,027.2,000.0,037.1,030.5,16.2,0000.0,0003.63,0009.87,0003.13
2023-07-18 03:37:00,SystemResetWarning,0830.9,5.00,000.00,028.8,027.4,000.0,037.1,030.5,16.1,0000.0,0003.61,0009.50,0003.14
2023-07-18 03:38:00,SystemResetWarning,0830.9,4.99,000.00,028.9,027.4,000.0,037.1,030.6,15.9,0000.0,0003.61,0009.89,0003.13
2023-07-18 03:39:00,SystemResetWarning,0830.9,5.00,000.00,028.8,025.6,000.0,037.0,030.3,15.5,0000.0,0003.61,0010.49,0003.13
2023-07-18 03:40:00,SystemResetWarning,0830.9,5.00,000.00,028.8,024.5,000.0,036.9,030.1,15.6,0000.0,0003.64,0011.24,0003.13
2023-07-18 03:41:00,SystemResetWarning,0830.9,5.01,000.00,028.7,024.7,000.0,036.9,030.0,15.7,0000.0,0003.61,0011.27,0003.12
2023-07-18 03:42:00,SystemResetWarning,0830.9,5.01,000.00,028.6,025.1,000.0,036.9,029.9,16.0,0000.0,0003.61,0010.48,0003.12
2023-07-18 03:43:00,SystemResetWarning,0830.9,4.99,000.00,028.6,025.5,000.0,036.9,030.0,16.7,0000.0,0003.60,0010.54,0003.12
2023-07-18 03:44:00,SystemResetWarning,0831.0,5.00,000.00,028.6,026.0,000.0,037.0,030.1,16.6,0000.0,0003.59,0011.39,0003.12
2023-07-18 03:45:00,SystemResetWarning,0831.0,5.00,000.00,028.6,026.5,000.0,037.0,030.2,16.4,0000.0,0003.58,0012.24,0003.11
2023-07-18 03:46:00,SystemResetWarning,0831.0,5.00,000.00,028.7,026.8,000.0,037.0,030.3,16.6,0000.0,0003.57,0011.62,0003.10
2023-07-18 03:47:00,SystemResetWarning,0831.0,5.00,000.00,028.7,027.1,000.0,037.0,030.4,16.5,0000.0,0003.57,0011.66,0003.11
2023-07-18 03:48:00,SystemResetWarning,0831.1,5.01,000.00,028.8,027.4,000.0,037.1,030.5,16.2,0000.0,0003.61,0011.58,0003.11
2023-07-18 03:49:00,SystemResetWarning,0831.1,5.00,000.00,028.8,027.6,000.0,037.1,030.5,16.6,0000.0,0003.62,0011.12,0003.10
2023-07-18 03:50:00,SystemResetWarning,0831.2,4.99,000.00,028.9,027.1,000.0,037.1,030.5,17.5,0000.0,0003.60,0010.46,0003.10
2023-07-18 03:51:00,SystemResetWarning,0831.1,5.00,000.00,028.8,025.2,000.0,037.0,030.3,17.2,0000.0,0003.61,0009.83,0003.11
2023-07-18 03:52:00,SystemResetWarning,0831.1,5.01,000.00,028.7,024.4,000.0,036.9,030.1,17.1,0000.0,0003.67,0009.77,0003.11
2023-07-18 03:53:00,SystemResetWarning,0831.1,5.01,000.00,028.6,024.7,000.0,036.9,029.9,17.1,0000.0,0003.68,0009.74,0003.10
2023-07-18 03:54:00,SystemResetWarning,0831.1,5.00,000.00,028.6,025.1,000.0,036.9,029.9,17.1,0000.0,0003.68,0010.21,0003.11
2023-07-18 03:55:00,SystemResetWarning,0831.1,5.01,000.00,028.6,025.6,000.0,036.9,030.0,16.8,0000.0,0003.70,0009.67,0003.11
2023-07-18 03:56:00,SystemResetWarning,0831.2,5.00,000.00,028.6,026.1,000.0,037.0,030.1,16.6,0000.0,0003.71,0008.79,0003.11
2023-07-18 03:57:00,SystemResetWarning,0831.2,5.00,000.00,028.6,026.5,000.0,037.0,030.2,16.4,0000.0,0003.76,0009.23,0003.12
2023-07-18 03:58:00,SystemResetWarning,0831.3,5.01,000.00,028.6,026.8,000.0,037.0,030.3,16.2,0000.0,0003.79,0009.66,0003.11
2023-07-18 03:59:00,SystemResetWarning,0831.3,5.00,000.00,028.7,027.1,000.0,037.0,030.4,16.3,0000.0,0003.78,0010.70,0003.13
